Total_Precipitation_Accumulation
2.78 2.68 4.03 4.31 3.72 2.91 2.72 2.64 2.40 2.25 2.27 2.32 2.12 2.04 1.98 1.96 1.77 1.68 1.53 1.40 1.36 1.37 1.43 1.45 1.51 1.60 1.56 1.43 1.32 1.58 1.67 1.66 1.65 1.61 1.75 1.95 2.14 2.33 2.54 2.76 2.98 3.18 2.96
2.26 2.27 3.70 4.04 3.48 2.83 2.48 2.39 2.30 2.20 2.31 2.29 2.24 2.11 2.05 1.91 1.78 1.72 1.48 1.42 1.43 1.42 1.37 1.43 1.52 1.48 1.44 1.45 1.44 1.60 1.63 1.48 1.41 1.57 1.90 2.19 2.26 2.36 2.49 2.53 2.86 3.08 2.86
1.77 1.89 2.82 3.66 3.34 2.85 2.44 2.22 2.24 2.24 2.38 2.38 2.39 2.21 2.04 1.90 1.83 1.68 1.57 1.64 1.60 1.48 1.37 1.31 1.46 1.54 1.50 1.63 1.59 1.60 1.53 1.46 1.45 1.71 2.34 3.09 2.75 2.47 2.49 2.49 2.69 2.60 2.60
1.62 1.72 2.13 3.02 2.91 2.50 2.25 2.21 2.33 2.36 2.49 2.46 2.35 2.13 1.98 1.95 1.87 1.72 1.70 1.84 1.68 1.57 1.44 1.37 1.51 1.65 1.56 1.62 1.59 1.53 1.44 1.49 1.67 1.80 2.29 2.96 3.11 2.67 2.59 2.68 2.62 2.54 2.67
1.56 1.71 2.34 2.98 2.73 2.41 2.20 2.39 2.59 2.61 2.58 2.40 2.20 2.00 1.96 1.98 1.92 1.86 1.91 2.00 1.78 1.66 1.50 1.40 1.50 1.55 1.51 1.51 1.47 1.47 1.46 1.65 1.92 1.81 2.15 2.70 3.30 3.13 2.60 2.59 2.61 2.63 2.85
1.58 1.74 2.24 2.87 2.68 2.46 2.29 2.53 2.65 2.68 2.73 2.60 2.33 2.07 1.98 1.93 1.91 1.86 1.93 1.87 1.82 1.77 1.56 1.46 1.50 1.54 1.52 1.51 1.51 1.49 1.56 1.75 1.78 1.86 2.21 2.66 3.13 3.14 2.66 2.52 2.62 2.87 2.92
1.44 1.49 1.79 2.54 2.63 2.46 2.38 2.63 2.70 2.76 2.93 2.84 2.55 2.37 2.14 1.96 1.93 1.93 1.99 1.85 1.79 1.80 1.78 1.69 1.63 1.61 1.58 1.59 1.53 1.40 1.36 1.37 1.34 1.61 1.91 2.62 2.96 2.95 2.80 2.63 2.60 2.70 2.84
1.51 1.43 1.46 2.17 2.47 2.47 2.51 2.58 2.56 2.58 2.68 2.72 2.50 2.31 2.08 1.94 1.92 2.06 2.14 1.97 1.93 1.77 1.68 1.75 1.78 1.79 1.81 1.77 1.67 1.53 1.38 1.10 0.99 1.25 1.70 2.44 2.95 2.92 2.77 2.80 2.83 2.78 3.00
1.64 1.57 1.49 1.67 2.03 2.38 2.46 2.36 2.36 2.34 2.35 2.47 2.34 2.22 2.03 1.96 1.94 2.04 2.08 2.00 2.03 2.00 1.96 2.04 2.17 2.13 2.05 2.06 1.85 1.68 1.49 1.14 1.08 1.28 1.41 2.30 2.94 2.96 2.73 2.69 2.87 3.04 3.09
1.84 1.69 1.52 1.49 1.57 1.67 1.91 2.10 2.28 2.33 2.30 2.36 2.18 1.99 1.87 1.84 1.88 2.01 2.00 1.98 2.13 2.20 2.24 2.42 2.57 2.48 2.56 2.41 1.93 1.61 1.39 1.12 1.16 1.22 1.56 2.20 2.95 3.10 2.91 2.66 2.58 2.61 2.69
1.66 1.52 1.56 1.56 1.57 1.63 1.60 1.67 2.01 2.15 2.18 2.05 1.97 1.84 1.69 1.44 1.39 1.59 1.74 2.16 2.48 2.69 2.63 2.63 2.51 2.35 2.25 2.06 1.72 1.37 1.11 1.04 1.15 1.28 1.74 2.38 3.08 3.31 3.01 2.61 2.42 2.33 2.37
1.40 1.32 1.37 1.38 1.51 1.56 1.42 1.64 1.95 1.78 1.68 1.45 1.47 1.34 1.40 1.35 1.32 1.15 1.38 1.93 2.23 2.35 2.37 2.38 2.29 2.02 1.70 1.35 1.26 1.11 0.95 0.89 0.93 1.11 1.74 2.52 2.94 3.25 3.08 2.75 2.61 2.49 2.47
1.18 1.12 1.05 1.11 1.17 1.30 1.47 1.71 2.00 2.06 1.87 1.64 1.40 1.32 1.36 1.29 1.21 1.09 1.11 1.29 1.46 1.54 1.44 1.48 1.49 1.37 1.27 1.17 1.13 0.95 0.88 0.83 0.90 1.10 1.85 2.54 2.86 3.03 3.07 2.98 2.94 2.90 2.78
1.00 1.06 0.87 0.78 0.92 1.10 1.20 1.33 1.61 1.68 1.60 1.49 1.29 1.20 1.29 1.33 1.22 1.17 1.17 1.21 1.23 1.21 1.25 1.26 1.35 1.32 1.14 1.05 1.03 1.05 0.99 0.92 1.00 1.26 1.87 2.41 2.82 3.11 3.09 3.10 3.19 3.13 3.16
1.05 1.04 0.92 0.80 0.77 0.85 0.91 1.01 1.16 1.31 1.38 1.40 1.37 1.18 1.19 1.32 1.29 1.26 1.20 1.25 1.14 1.05 1.11 1.20 1.25 1.30 1.21 1.06 1.01 1.01 1.09 1.02 1.03 1.19 1.57 2.10 2.64 3.12 3.34 3.27 3.15 3.04 3.04
1.07 1.09 1.01 0.88 0.84 0.86 0.84 0.84 0.84 0.97 1.12 1.23 1.27 1.19 1.20 1.30 1.31 1.37 1.32 1.25 1.18 1.09 1.12 1.30 1.28 1.30 1.29 1.22 1.06 1.07 1.10 1.04 1.04 1.08 1.25 1.66 2.06 2.56 3.14 3.51 3.32 3.03 2.81
1.11 1.13 1.11 1.03 1.01 1.00 0.95 0.91 0.77 0.81 0.89 1.04 1.19 1.20 1.26 1.22 1.16 1.24 1.26 1.20 1.18 1.19 1.21 1.26 1.31 1.39 1.32 1.23 1.18 1.15 1.12 1.06 1.01 1.07 1.02 1.18 1.35 1.82 2.42 2.93 3.21 3.18 3.03
1.01 1.16 1.23 1.13 1.14 1.14 1.13 1.09 1.00 1.01 1.09 1.16 1.33 1.30 1.24 1.27 1.24 1.23 1.26 1.25 1.27 1.31 1.30 1.34 1.42 1.42 1.39 1.37 1.32 1.27 1.14 1.11 1.06 1.06 1.00 0.99 1.09 1.18 1.53 1.97 2.44 2.82 3.04
0.91 1.01 1.12 1.21 1.26 1.23 1.22 1.29 1.37 1.39 1.39 1.40 1.48 1.39 1.27 1.27 1.32 1.45 1.48 1.47 1.43 1.46 1.46 1.41 1.43 1.36 1.37 1.38 1.29 1.31 1.26 1.21 1.15 1.02 1.05 1.01 1.04 1.01 1.14 1.31 1.58 1.87 2.24
0.84 0.91 1.03 1.15 1.36 1.44 1.43 1.40 1.54 1.57 1.60 1.68 1.73 1.56 1.43 1.47 1.59 1.77 1.84 1.74 1.70 1.69 1.68 1.62 1.66 1.55 1.44 1.47 1.35 1.33 1.30 1.21 1.23 1.20 1.18 1.11 1.15 1.10 1.07 1.11 1.21 1.20 1.40
0.72 0.78 0.89 1.00 1.20 1.30 1.34 1.45 1.65 1.81 1.93 2.02 2.06 1.92 1.79 1.76 1.91 2.06 1.97 2.04 2.05 1.92 1.91 1.96 2.01 1.97 1.78 1.64 1.69 1.58 1.33 1.15 1.22 1.19 1.19 1.24 1.25 1.33 1.32 1.20 1.19 1.20 1.15
0.47 0.53 0.64 0.79 0.89 1.04 1.24 1.50 1.71 1.98 2.02 2.08 2.14 2.13 2.04 1.98 2.12 2.16 2.23 2.32 2.34 2.35 2.28 2.17 2.28 2.44 2.17 1.93 2.04 2.32 1.94 1.59 1.24 1.02 1.13 1.22 1.27 1.50 1.53 1.32 1.14 1.13 1.16
0.39 0.43 0.53 0.66 0.82 1.05 1.31 1.67 1.96 2.24 2.34 2.39 2.33 2.33 2.29 2.29 2.33 2.37 2.42 2.48 2.49 2.36 2.35 2.46 2.59 2.94 2.74 2.36 2.16 2.44 2.28 1.97 1.68 1.24 1.12 1.21 1.29 1.43 1.53 1.57 1.46 1.36 1.27
0.36 0.43 0.57 0.77 1.00 1.28 1.61 1.96 2.24 2.54 2.70 2.54 2.51 2.50 2.44 2.33 2.32 2.42 2.41 2.39 2.35 2.30 2.37 2.45 2.51 2.94 3.15 2.85 2.50 2.07 1.85 1.83 1.95 1.69 1.27 1.20 1.29 1.30 1.41 1.49 1.46 1.54 1.49
0.48 0.58 0.77 1.05 1.36 1.65 1.90 2.08 2.33 2.47 2.50 2.47 2.41 2.40 2.30 2.25 2.22 2.23 2.21 2.30 2.30 2.33 2.39 2.57 2.70 2.98 3.03 3.03 2.83 2.59 2.35 2.03 1.72 1.81 1.78 1.48 1.40 1.30 1.38 1.51 1.55 1.67 1.69
0.68 0.85 1.05 1.23 1.53 1.72 1.87 2.00 2.15 2.30 2.35 2.33 2.32 2.35 2.32 2.28 2.17 2.08 2.03 2.10 2.22 2.35 2.40 2.49 2.66 2.93 3.05 3.15 3.06 2.77 2.66 2.49 2.22 2.12 1.89 1.73 1.69 1.45 1.40 1.46 1.50 1.64 1.81